| time (UTC) | temp C | wind direction | speed KPH | gust KPH | rain 1hr cm | rain 24hr cm | rain mn cm | humidity % | barometer mb |
| 20260503224501 | 15 | 191 | 8.0 | 9.7 | 0.00 | 0.00 | 0.00 | 37 | 1012.1 |
| 20260503223959 | 15 | 219 | 8.0 | 9.7 | 0.00 | 0.00 | 0.00 | 37 | 1012.2 |
| 20260503223457 | 15 | 229 | 9.7 | 12.9 | 0.00 | 0.00 | 0.00 | 36 | 1012.0 |
| 20260503222952 | 15 | 247 | 4.8 | 8.0 | 0.00 | 0.00 | 0.00 | 38 | 1012.1 |
| 20260503222451 | 15 | 242 | 8.0 | 9.7 | 0.00 | 0.00 | 0.00 | 38 | 1011.9 |
| 20260503221948 | 15 | 236 | 6.4 | 8.0 | 0.00 | 0.00 | 0.00 | 36 | 1012.2 |
| 20260503221446 | 15 | 218 | 11.3 | 12.9 | 0.00 | 0.00 | 0.00 | 35 | 1012.0 |
| 20260503220943 | 15 | 210 | 19.3 | 24.1 | 0.00 | 0.00 | 0.00 | 34 | 1012.3 |
| 20260503220439 | 15 | 220 | 8.0 | 17.7 | 0.00 | 0.00 | 0.00 | 33 | 1011.9 |
| 20260503215936 | 15 | 198 | 17.7 | 22.5 | 0.00 | 0.00 | 0.00 | 34 | 1012.2 |
| 20260503215433 | 15 | 182 | 12.9 | 17.7 | 0.00 | 0.00 | 0.00 | 35 | 1012.2 |
| 20260503214931 | 15 | 204 | 9.7 | 11.3 | 0.00 | 0.00 | 0.00 | 37 | 1012.0 |
| 20260503214429 | 15 | 224 | 11.3 | 11.3 | 0.00 | 0.00 | 0.00 | 36 | 1012.2 |
| 20260503213925 | 15 | 213 | 12.9 | 16.1 | 0.00 | 0.00 | 0.00 | 35 | 1012.3 |
| 20260503213424 | 16 | 195 | 16.1 | 20.9 | 0.00 | 0.00 | 0.00 | 35 | 1012.1 |
| 20260503212920 | 16 | 218 | 4.8 | 11.3 | 0.00 | 0.00 | 0.00 | 34 | 1011.9 |
| 20260503212417 | 16 | 261 | 8.0 | 11.3 | 0.00 | 0.00 | 0.00 | 37 | 1012.0 |
| 20260503211915 | 16 | 217 | 11.3 | 14.5 | 0.00 | 0.00 | 0.00 | 35 | 1012.1 |
| 20260503211412 | 15 | 231 | 12.9 | 16.1 | 0.00 | 0.00 | 0.00 | 35 | 1012.0 |
| 20260503210907 | 15 | 234 | 12.9 | 14.5 | 0.00 | 0.00 | 0.00 | 36 | 1012.1 |
| 20260503210405 | 15 | 232 | 8.0 | 9.7 | 0.00 | 0.00 | 0.00 | 34 | 1012.2 |
| 20260503205904 | 15 | 190 | 3.2 | 3.2 | 0.00 | 0.00 | 0.00 | 35 | 1012.2 |
| 20260503205401 | 15 | 251 | 12.9 | 14.5 | 0.00 | 0.00 | 0.00 | 33 | 1012.0 |
| 20260503204858 | 15 | 219 | 9.7 | 16.1 | 0.00 | 0.00 | 0.00 | 33 | 1012.2 |
| 20260503204355 | 15 | 202 | 9.7 | 14.5 | 0.00 | 0.00 | 0.00 | 36 | 1011.9 |
| 20260503203852 | 15 | 217 | 8.0 | 12.9 | 0.00 | 0.00 | 0.00 | 32 | 1012.2 |
| 20260503203349 | 15 | 219 | 12.9 | 14.5 | 0.00 | 0.00 | 0.00 | 34 | 1012.1 |
| 20260503202846 | 15 | 203 | 9.7 | 14.5 | 0.00 | 0.00 | 0.00 | 37 | 1012.1 |
| 20260503202345 | 15 | 205 | 16.1 | 20.9 | 0.00 | 0.00 | 0.00 | 36 | 1012.3 |
| 20260503201843 | 16 | 206 | 9.7 | 14.5 | 0.00 | 0.00 | 0.00 | 33 | 1012.2 |
| 20260503201339 | 16 | 249 | 11.3 | 12.9 | 0.00 | 0.00 | 0.00 | 35 | 1012.2 |
| 20260503200837 | 16 | 205 | 9.7 | 14.5 | 0.00 | 0.00 | 0.00 | 36 | 1012.2 |
| 20260503200332 | 15 | 213 | 9.7 | 14.5 | 0.00 | 0.00 | 0.00 | 33 | 1012.1 |
| 20260503195830 | 15 | 225 | 11.3 | 14.5 | 0.00 | 0.00 | 0.00 | 35 | 1012.1 |
| 20260503195326 | 15 | 234 | 9.7 | 12.9 | 0.00 | 0.00 | 0.00 | 36 | 1012.3 |
| 20260503194824 | 15 | 221 | 12.9 | 20.9 | 0.00 | 0.00 | 0.00 | 35 | 1012.3 |
| 20260503194319 | 15 | 173 | 6.4 | 8.0 | 0.00 | 0.00 | 0.00 | 37 | 1012.6 |
| 20260503193816 | 15 | 200 | 20.9 | 22.5 | 0.00 | 0.00 | 0.00 | 35 | 1012.6 |
| 20260503193312 | 15 | 198 | 11.3 | 16.1 | 0.00 | 0.00 | 0.00 | 36 | 1012.7 |
| 20260503192808 | 15 | 213 | 4.8 | 8.0 | 0.00 | 0.00 | 0.00 | 36 | 1012.8 |
| 20260503192305 | 15 | 204 | 14.5 | 17.7 | 0.00 | 0.00 | 0.00 | 36 | 1012.9 |
| 20260503191800 | 14 | 220 | 19.3 | 22.5 | 0.00 | 0.00 | 0.00 | 36 | 1012.7 |
| 20260503191257 | 15 | 285 | 8.0 | 12.9 | 0.00 | 0.00 | 0.00 | 38 | 1013.0 |
| 20260503190754 | 15 | 221 | 12.9 | 16.1 | 0.00 | 0.00 | 0.00 | 39 | 1012.9 |
| 20260503190250 | 15 | 239 | 12.9 | 17.7 | 0.00 | 0.00 | 0.00 | 36 | 1012.9 |
| 20260503185748 | 15 | 214 | 11.3 | 14.5 | 0.00 | 0.00 | 0.00 | 37 | 1013.1 |
| 20260503185243 | 15 | 171 | 9.7 | 11.3 | 0.00 | 0.00 | 0.00 | 36 | 1013.2 |
| 20260503184738 | 15 | 232 | 11.3 | 12.9 | 0.00 | 0.00 | 0.00 | 38 | 1013.1 |
| 20260503184235 | 15 | 220 | 12.9 | 14.5 | 0.00 | 0.00 | 0.00 | 36 | 1013.3 |
| 20260503183731 | 15 | 216 | 6.4 | 9.7 | 0.00 | 0.00 | 0.00 | 36 | 1013.2 |
| 20260503183229 | 15 | 218 | 16.1 | 22.5 | 0.00 | 0.00 | 0.00 | 44 | 1013.5 |
| 20260503182726 | 14 | 217 | 6.4 | 8.0 | 0.00 | 0.00 | 0.00 | 38 | 1013.5 |
| 20260503182225 | 14 | 256 | 11.3 | 12.9 | 0.00 | 0.00 | 0.00 | 38 | 1013.4 |
| 20260503181721 | 14 | 225 | 14.5 | 16.1 | 0.00 | 0.00 | 0.00 | 37 | 1013.4 |
| 20260503181218 | 15 | 185 | 9.7 | 11.3 | 0.00 | 0.00 | 0.00 | 35 | 1013.3 |
| 20260503180715 | 15 | 217 | 14.5 | 16.1 | 0.00 | 0.00 | 0.00 | 37 | 1013.5 |
| 20260503180213 | 15 | 102 | 8.0 | 12.9 | 0.00 | 0.00 | 0.00 | 34 | 1013.7 |
| 20260503175710 | 15 | 174 | 6.4 | 9.7 | 0.00 | 0.00 | 0.00 | 35 | 1013.5 |
| 20260503175208 | 14 | 215 | 1.6 | 3.2 | 0.00 | 0.00 | 0.00 | 35 | 1013.6 |
| 20260503174703 | 15 | 238 | 8.0 | 11.3 | 0.00 | 0.00 | 0.00 | 41 | 1013.5 |
| 20260503174201 | 15 | 213 | 8.0 | 11.3 | 0.00 | 0.00 | 0.00 | 36 | 1013.4 |
| 20260503173656 | 14 | 238 | 22.5 | 27.4 | 0.00 | 0.00 | 0.00 | 36 | 1013.7 |
| 20260503173152 | 14 | 273 | 14.5 | 22.5 | 0.00 | 0.00 | 0.00 | 39 | 1013.1 |
| 20260503172649 | 13 | 245 | 9.7 | 12.9 | 0.00 | 0.00 | 0.00 | 37 | 1013.6 |
| 20260503172147 | 14 | 228 | 14.5 | 20.9 | 0.00 | 0.00 | 0.00 | 36 | 1013.4 |
| 20260503171643 | 13 | 191 | 8.0 | 9.7 | 0.00 | 0.00 | 0.00 | 34 | 1013.7 |
| 20260503171141 | 13 | 188 | 3.2 | 3.2 | 0.00 | 0.00 | 0.00 | 33 | 1013.8 |
| 20260503170637 | 13 | 192 | 14.5 | 16.1 | 0.00 | 0.00 | 0.00 | 37 | 1013.9 |
| 20260503170134 | 13 | 198 | 6.4 | 8.0 | 0.00 | 0.00 | 0.00 | 38 | 1014.0 |
| 20260503150526 | 10 | 157 | 4.8 | 4.8 | 0.00 | 0.00 | 0.00 | 47 | 1015.1 |
| 20260503131419 | 7 | 255 | 8.0 | 9.7 | 0.00 | 0.00 | 0.00 | 58 | 1015.7 |
| 20260503130915 | 7 | 200 | 8.0 | 11.3 | 0.00 | 0.00 | 0.00 | 56 | 1015.7 |
| 20260503130413 | 7 | 222 | 3.2 | 4.8 | 0.00 | 0.00 | 0.00 | 57 | 1015.8 |
| 20260503110817 | 5 | 205 | 4.8 | 8.0 | 0.00 | 0.00 | 0.00 | 64 | 1015.3 |
| 20260503110314 | 5 | 222 | 4.8 | 4.8 | 0.00 | 0.00 | 0.00 | 62 | 1015.3 |
| 20260503100240 | 3 | 208 | 1.6 | 1.6 | 0.00 | 0.00 | 0.00 | 66 | 1014.6 |
| 20260503090200 | 5 | 188 | 0.0 | 0.0 | 0.00 | 0.00 | 0.00 | 65 | 1014.2 |
| 20260503081630 | 5 | 206 | 0.0 | 1.6 | 0.00 | 0.00 | 0.00 | 61 | 1014.2 |
| 20260503081127 | 5 | 194 | 1.6 | 3.2 | 0.00 | 0.00 | 0.00 | 58 | 1014.0 |
| 20260503080622 | 5 | 272 | 3.2 | 8.0 | 0.00 | 0.00 | 0.00 | 58 | 1013.9 |
| 20260503080119 | 5 | 179 | 1.6 | 1.6 | 0.00 | 0.00 | 0.00 | 59 | 1014.2 |
| 20260503072556 | 4 | 203 | 3.2 | 3.2 | 0.00 | 0.00 | 0.00 | 61 | 1013.6 |
| 20260503072054 | 5 | 234 | 0.0 | 1.6 | 0.00 | 0.00 | 0.00 | 63 | 1013.6 |
| 20260503071550 | 5 | 216 | 3.2 | 3.2 | 0.00 | 0.00 | 0.00 | 59 | 1013.8 |
| 20260503071047 | 5 | 184 | 4.8 | 8.0 | 0.00 | 0.00 | 0.00 | 61 | 1013.6 |
| 20260503070543 | 5 | 174 | 4.8 | 9.7 | 0.00 | 0.00 | 0.00 | 66 | 1013.7 |
| 20260503054957 | 6 | 227 | 1.6 | 3.2 | 0.00 | 0.00 | 0.00 | 58 | 1013.4 |
| 20260503054453 | 6 | 217 | 3.2 | 3.2 | 0.00 | 0.00 | 0.00 | 58 | 1013.4 |
| 20260503053950 | 5 | 249 | 4.8 | 8.0 | 0.00 | 0.00 | 0.00 | 60 | 1013.6 |
| 20260503053448 | 6 | 208 | 6.4 | 8.0 | 0.00 | 0.00 | 0.00 | 57 | 1013.3 |
| 20260503052945 | 6 | 225 | 6.4 | 8.0 | 0.00 | 0.00 | 0.00 | 58 | 1013.4 |
| 20260503052442 | 6 | 196 | 9.7 | 14.5 | 0.00 | 0.00 | 0.00 | 58 | 1013.5 |
| 20260503051938 | 6 | 191 | 6.4 | 8.0 | 0.00 | 0.00 | 0.00 | 58 | 1013.4 |
| 20260503051434 | 6 | 208 | 8.0 | 8.0 | 0.00 | 0.00 | 0.00 | 59 | 1013.7 |
| 20260503050932 | 6 | 210 | 3.2 | 3.2 | 0.00 | 0.00 | 0.00 | 60 | 1013.8 |
| 20260503050427 | 6 | 192 | 6.4 | 11.3 | 0.00 | 0.00 | 0.00 | 58 | 1013.8 |
| 20260503045926 | 6 | 203 | 0.0 | 1.6 | 0.00 | 0.00 | 0.00 | 59 | 1013.7 |
| 20260503045423 | 6 | 223 | 4.8 | 4.8 | 0.00 | 0.00 | 0.00 | 57 | 1013.7 |
| 20260503044919 | 6 | 169 | 6.4 | 9.7 | 0.00 | 0.00 | 0.00 | 60 | 1013.7 |
| 20260503044416 | 6 | 209 | 1.6 | 1.6 | 0.00 | 0.00 | 0.00 | 58 | 1013.8 |
| 20260503043914 | 6 | 210 | 6.4 | 8.0 | 0.00 | 0.00 | 0.00 | 59 | 1013.8 |
| 20260503043410 | 7 | 204 | 3.2 | 3.2 | 0.00 | 0.00 | 0.00 | 56 | 1014.0 |
| 20260503042906 | 6 | 207 | 3.2 | 3.2 | 0.00 | 0.00 | 0.00 | 58 | 1013.9 |
| 20260503042403 | 7 | 204 | 0.0 | 0.0 | 0.00 | 0.00 | 0.00 | 54 | 1013.8 |
| 20260503041859 | 6 | 183 | 0.0 | 1.6 | 0.00 | 0.00 | 0.00 | 56 | 1014.0 |
| 20260503041356 | 7 | 221 | 4.8 | 4.8 | 0.00 | 0.00 | 0.00 | 58 | 1013.8 |
| 20260503040854 | 7 | 231 | 1.6 | 1.6 | 0.00 | 0.00 | 0.00 | 57 | 1014.1 |
| 20260503040351 | 7 | 209 | 8.0 | 11.3 | 0.00 | 0.00 | 0.00 | 58 | 1014.0 |
| 20260503035848 | 7 | 227 | 3.2 | 3.2 | 0.00 | 0.03 | 0.03 | 59 | 1014.1 |
| 20260503035345 | 7 | 196 | 8.0 | 9.7 | 0.00 | 0.03 | 0.03 | 60 | 1014.1 |
| 20260503034842 | 7 | 219 | 4.8 | 4.8 | 0.00 | 0.03 | 0.03 | 61 | 1014.2 |
| 20260503034340 | 7 | 197 | 6.4 | 9.7 | 0.00 | 0.03 | 0.03 | 61 | 1014.0 |
| 20260503033837 | 7 | 206 | 8.0 | 9.7 | 0.00 | 0.03 | 0.03 | 61 | 1013.9 |
| 20260503033334 | 7 | 207 | 6.4 | 8.0 | 0.00 | 0.03 | 0.03 | 61 | 1014.1 |
| 20260503032832 | 7 | 229 | 4.8 | 8.0 | 0.00 | 0.03 | 0.03 | 60 | 1014.3 |
| 20260503032331 | 7 | 211 | 6.4 | 8.0 | 0.00 | 0.03 | 0.03 | 62 | 1014.0 |
| 20260503031828 | 7 | 199 | 3.2 | 4.8 | 0.00 | 0.03 | 0.03 | 63 | 1014.2 |
| 20260503031326 | 7 | 216 | 6.4 | 9.7 | 0.00 | 0.03 | 0.03 | 63 | 1014.1 |
| 20260503030822 | 7 | 221 | 8.0 | 11.3 | 0.00 | 0.03 | 0.03 | 65 | 1014.1 |
| 20260503030318 | 7 | 211 | 4.8 | 4.8 | 0.00 | 0.03 | 0.03 | 66 | 1014.2 |
| 20260503025815 | 7 | 207 | 6.4 | 9.7 | 0.00 | 0.03 | 0.03 | 66 | 1014.2 |
| 20260503025313 | 7 | 232 | 8.0 | 11.3 | 0.00 | 0.03 | 0.03 | 66 | 1014.1 |
| 20260503024809 | 7 | 191 | 6.4 | 9.7 | 0.00 | 0.03 | 0.03 | 66 | 1014.3 |
| 20260503024306 | 7 | 226 | 6.4 | 11.3 | 0.00 | 0.03 | 0.03 | 67 | 1014.2 |
| 20260503023803 | 7 | 199 | 9.7 | 11.3 | 0.00 | 0.03 | 0.03 | 67 | 1014.3 |
| 20260503023300 | 7 | 213 | 4.8 | 8.0 | 0.00 | 0.03 | 0.03 | 67 | 1014.2 |
| 20260503022757 | 7 | 203 | 0.0 | 0.0 | 0.00 | 0.03 | 0.03 | 68 | 1014.2 |
| 20260503022256 | 7 | 219 | 4.8 | 8.0 | 0.00 | 0.03 | 0.03 | 68 | 1014.1 |
| 20260503021753 | 7 | 209 | 8.0 | 9.7 | 0.00 | 0.03 | 0.03 | 68 | 1014.2 |
| 20260503021249 | 7 | 226 | 6.4 | 8.0 | 0.00 | 0.03 | 0.03 | 68 | 1014.4 |
| 20260503020748 | 7 | 198 | 3.2 | 3.2 | 0.00 | 0.03 | 0.03 | 68 | 1014.2 |
| 20260503020245 | 7 | 207 | 3.2 | 4.8 | 0.00 | 0.03 | 0.03 | 69 | 1014.5 |
| 20260503015741 | 7 | 213 | 4.8 | 4.8 | 0.00 | 0.03 | 0.03 | 69 | 1014.1 |
| 20260503015238 | 7 | 209 | 1.6 | 1.6 | 0.00 | 0.03 | 0.03 | 69 | 1014.3 |
| 20260503014734 | 7 | 192 | 3.2 | 3.2 | 0.00 | 0.03 | 0.03 | 68 | 1014.1 |
| 20260503014232 | 7 | 207 | 3.2 | 4.8 | 0.00 | 0.03 | 0.03 | 69 | 1014.1 |
| 20260503013729 | 7 | 204 | 3.2 | 3.2 | 0.00 | 0.03 | 0.03 | 69 | 1014.1 |
| 20260503013227 | 7 | 208 | 3.2 | 4.8 | 0.00 | 0.03 | 0.03 | 69 | 1014.1 |
| 20260503012724 | 7 | 213 | 3.2 | 3.2 | 0.00 | 0.03 | 0.03 | 69 | 1013.9 |
| 20260503012221 | 7 | 187 | 3.2 | 3.2 | 0.00 | 0.03 | 0.03 | 69 | 1014.1 |
| 20260503011717 | 7 | 229 | 3.2 | 4.8 | 0.00 | 0.03 | 0.03 | 69 | 1013.9 |
| 20260503011214 | 7 | 211 | 0.0 | 1.6 | 0.00 | 0.03 | 0.03 | 69 | 1013.9 |
| 20260503010710 | 7 | 205 | 4.8 | 8.0 | 0.00 | 0.03 | 0.03 | 69 | 1013.8 |
| 20260503010208 | 7 | 223 | 3.2 | 4.8 | 0.00 | 0.03 | 0.03 | 71 | 1013.9 |
| 20260503005705 | 7 | 210 | 1.6 | 3.2 | 0.00 | 0.03 | 0.03 | 71 | 1013.9 |
| 20260503005202 | 7 | 205 | 3.2 | 3.2 | 0.00 | 0.03 | 0.03 | 72 | 1013.7 |
| 20260503004658 | 7 | 215 | 3.2 | 3.2 | 0.00 | 0.03 | 0.03 | 72 | 1013.7 |
| 20260503004157 | 7 | 208 | 1.6 | 3.2 | 0.00 | 0.03 | 0.03 | 74 | 1013.7 |
| 20260503003654 | 7 | 205 | 3.2 | 4.8 | 0.00 | 0.03 | 0.03 | 74 | 1013.6 |
| 20260503003150 | 7 | 217 | 3.2 | 4.8 | 0.00 | 0.03 | 0.03 | 72 | 1013.3 |
| 20260503002647 | 7 | 223 | 3.2 | 3.2 | 0.00 | 0.03 | 0.03 | 71 | 1013.4 |
| 20260503002144 | 7 | 198 | 1.6 | 3.2 | 0.00 | 0.03 | 0.03 | 70 | 1013.3 |
| 20260503001640 | 7 | 213 | 6.4 | 8.0 | 0.00 | 0.03 | 0.03 | 70 | 1013.5 |
| 20260503001137 | 8 | 203 | 0.0 | 1.6 | 0.00 | 0.03 | 0.03 | 68 | 1013.5 |
| 20260503000635 | 8 | 207 | 1.6 | 1.6 | 0.00 | 0.03 | 0.03 | 67 | 1013.4 |
| 20260503000132 | 8 | 204 | 4.8 | 4.8 | 0.00 | 0.03 | 0.03 | 68 | 1013.5 |
| 20260502235628 | 8 | 184 | 1.6 | 1.6 | 0.00 | 0.03 | 0.03 | 66 | 1013.4 |
| 20260502235126 | 8 | 232 | 6.4 | 8.0 | 0.00 | 0.03 | 0.03 | 66 | 1013.4 |
| 20260502234622 | 8 | 176 | 8.0 | 11.3 | 0.00 | 0.03 | 0.03 | 66 | 1013.2 |
| 20260502234120 | 8 | 236 | 4.8 | 4.8 | 0.00 | 0.03 | 0.03 | 65 | 1013.1 |
| 20260502233615 | 8 | 207 | 1.6 | 3.2 | 0.00 | 0.03 | 0.03 | 65 | 1013.1 |
| 20260502233112 | 8 | 232 | 3.2 | 4.8 | 0.00 | 0.03 | 0.03 | 65 | 1013.3 |
| 20260502232608 | 8 | 206 | 6.4 | 9.7 | 0.00 | 0.03 | 0.03 | 65 | 1013.4 |
| 20260502232106 | 8 | 188 | 3.2 | 4.8 | 0.00 | 0.03 | 0.03 | 64 | 1013.2 |
| 20260502231602 | 8 | 216 | 3.2 | 3.2 | 0.00 | 0.03 | 0.03 | 65 | 1013.0 |
| 20260502231100 | 8 | 192 | 6.4 | 8.0 | 0.00 | 0.03 | 0.03 | 63 | 1013.4 |
| 20260502230558 | 8 | 94 | 1.6 | 3.2 | 0.00 | 0.03 | 0.03 | 62 | 1013.2 |
| 20260502230057 | 8 | 192 | 3.2 | 4.8 | 0.00 | 0.03 | 0.03 | 62 | 1013.1 |
| 20260502225552 | 8 | 197 | 3.2 | 4.8 | 0.00 | 0.03 | 0.03 | 62 | 1013.2 |
| 20260502225050 | 9 | 200 | 0.0 | 1.6 | 0.00 | 0.03 | 0.03 | 61 | 1013.1 |